Weather in Dorking

United Kingdom     51˚13′43″N   0˚20′20″E
temp.,
°C
wind,
m/s
gust,
m/s
humid.,
%
clouds,
%
prec.,
mm/h
press.,
hPa
HPBL,
m
17 january, sun
sun1700:00+4˚wnw41192100 0.1 1019470
03:00+3˚wnw51390100 0.0 1019509
06:00+4˚nw5128899 0.2 1021866
09:00+3˚nw5128923 0.0 1023555
12:00+6˚nw597613 0.0 1025755
15:00+5˚nw488293 0.0 1026673
18:00+4˚w399196 0.0 1026325
21:00+3˚w3893100 0.0 1026234
18 january, mon
mon1800:00+2˚wsw379381 0.0 1026171
03:00+2˚sw379520 0.0 1024211
06:00+2˚sw399443 0.0 1024213
09:00+3˚wsw41091100 0.0 1023328
12:00+6˚wsw5979100 0.1 1022894
15:00+6˚sw3983100 0.0 1019794
18:00+6˚ssw71495100 1.6 1016634
21:00+8˚sw51397100 3.8 1013536
19 january, tue
tue1900:00+8˚sw41197100 3.9 1010527
03:00+10˚sw71696100 1.6 1006895
06:00+11˚wsw81691100 2.7 10051091
09:00+10˚wsw91687100 0.0 10051165
12:00+10˚sw71787100 0.1 10051428
15:00+10˚sw111884100 0.1 10011231
18:00+9˚sw111890100 1.3 9991095
21:00+10˚sw111990100 2.3 9971127
20 january, wed
wed2000:00+10˚sw112093100 6.7 9951227
03:00+10˚sw111991100 3.8 9931159
06:00+10˚ssw111891100 4.8 9921048
09:00+8˚ssw112183100 2.1 9911189
12:00+8˚ssw101890100 3.4 9891028
15:00+10˚ssw111889100 0.8 9861111
18:00+9˚s111988100 2.4 9841188
21:00+9˚s132185100 0.4 9781266
21 january, thu
thu2100:00+9˚sw101783100 4.6 9751327
03:00+4˚w101775100 0.1 9801455
06:00+3˚wsw8177867 0.1 9841341
09:00+4˚sw5168029 0.0 9851334
12:00+7˚wsw10186965 0.3 9861842
15:00+6˚wsw8156827 0.2 9871465
18:00+4˚wsw4138013 0.2 989693
21:00+2˚sw38860 0.0 990272